Weather History for Plattsmouth, NE

Change the Weather History Date:

Monday, February 18, 2013

  Actual Average (KOFF) Record (KOFF)
Temperature  
Mean Temperature 32 °F -  
Max Temperature 44 °F 38 °F 65 °F (2014)
Min Temperature 21 °F 21 °F -2 °F (2006)
Degree Days  
Heating Degree Days 32    
Moisture  
Dew Point 25 °F    
Average Humidity 74    
Maximum Humidity 96    
Minimum Humidity 60    
Precipitation  
Precipitation 0.00 in - - ()
Sea Level Pressure  
Sea Level Pressure 29.77 in    
Wind  
Wind Speed 14 mph (NW)    
Max Wind Speed 32 mph    
Max Gust Speed 43 mph    
Visibility 10 miles    
Events Rain , Snow    
Averages and records for this station are not official NWS values.
T = Trace of Precipitation, MM = Missing Value Source: NWS Daily Summary

Daily Weather History Graph

Daily Weather History Graph

Search for Another Location

Airport:

Trip Planner

Search our weather history database for the weather conditions in past years. The results will help you decide how hot, cold, wet, or windy it might be!

Date:

Astronomy

Feb. 18, 2013 Rise Set
Actual Time 7:13 AM CST 6:02 PM CST
Civil Twilight 6:45 AM CST 6:30 PM CST
Nautical Twilight 6:13 AM CST 7:02 PM CST
Astronomical Twilight 5:41 AM CST 7:34 PM CST
Moon 11:47 AM CST (2/18) 1:55 AM CST (2/18)
Length of Visible Light 11h 44m
Length of Day
10h 48m
First Quarter, 58% of the Moon is Illuminated
Feb 18
First Quarter
Feb 25
Full
Mar 4
Last Quarter
Mar 11
New
Mar 19
First Quarter

Hourly Weather History & Observations

Time (CST) Temp. Windchill Dew Point Humidity Pressure Visibility Wind Dir Wind Speed Gust Speed Precip Events Conditions
12:15 AM 44.1 °F 37.4 °F 32.0 °F 63% 29.56 in 10.0 mi SSE 13.8 mph - N/A   Clear
12:35 AM 43.2 °F 36.6 °F 32.0 °F 65% 29.55 in 10.0 mi SSE 12.7 mph - N/A   Clear
12:55 AM 42.3 °F 35.5 °F 32.0 °F 67% 29.54 in 10.0 mi SSE 12.7 mph - N/A   Clear
1:15 AM 42.1 °F 35.2 °F 32.0 °F 67% 29.54 in 10.0 mi SSE 12.7 mph - N/A   Clear
1:35 AM 42.3 °F 36.3 °F 32.0 °F 67% 29.53 in 10.0 mi SSE 10.4 mph - N/A   Clear
1:55 AM 42.8 °F 37.0 °F 32.0 °F 66% 29.52 in 10.0 mi SSE 10.4 mph - N/A   Clear
2:15 AM 41.9 °F - 31.6 °F 67% 29.54 in 10.0 mi Calm Calm - N/A   Clear
2:35 AM 40.8 °F 36.2 °F 31.6 °F 70% 29.58 in 10.0 mi WNW 6.9 mph 16.1 mph N/A   Clear
3:15 AM 38.3 °F - 31.8 °F 77% 29.55 in 10.0 mi Calm Calm - N/A   Clear
3:35 AM 39.2 °F - 32.0 °F 75% 29.54 in 10.0 mi Calm Calm - N/A   Clear
3:55 AM 38.3 °F - 31.8 °F 77% 29.55 in 10.0 mi Calm Calm - N/A   Clear
4:15 AM 33.8 °F 27.7 °F 30.6 °F 88% 29.54 in 10.0 mi NNW 6.9 mph - N/A   Clear
4:35 AM 34.0 °F 27.2 °F 30.7 °F 88% 29.54 in 10.0 mi NNW 8.1 mph - N/A   Clear
4:55 AM 35.6 °F 29.2 °F 31.3 °F 84% 29.55 in 10.0 mi NNW 8.1 mph - N/A   Clear
5:15 AM 36.5 °F 31.0 °F 31.6 °F 83% 29.57 in 10.0 mi NNW 6.9 mph - N/A   Clear
5:35 AM 36.9 °F 32.2 °F 31.8 °F 82% 29.58 in 10.0 mi NNW 5.8 mph - N/A   Clear
5:55 AM 39.2 °F 32.5 °F 32.0 °F 75% 29.59 in 10.0 mi North 10.4 mph - N/A   Clear
6:15 AM 38.8 °F 33.2 °F 32.0 °F 76% 29.60 in 10.0 mi NNW 8.1 mph - N/A   Clear
6:35 AM 38.5 °F 32.1 °F 32.0 °F 78% 29.60 in 10.0 mi North 9.2 mph - N/A   Clear
6:55 AM 38.7 °F 31.8 °F 32.0 °F 77% 29.62 in 10.0 mi North 10.4 mph 19.6 mph N/A   Clear
7:15 AM 37.9 °F 31.5 °F 31.6 °F 78% 29.63 in 10.0 mi North 9.2 mph - N/A   Clear
7:35 AM 36.9 °F 32.2 °F 31.5 °F 81% 29.63 in 10.0 mi NNW 5.8 mph - N/A   Clear
7:55 AM 37.8 °F 30.7 °F 31.8 °F 79% 29.64 in 10.0 mi North 10.4 mph - N/A   Clear
8:15 AM 38.1 °F 30.7 °F 32.0 °F 79% 29.65 in 10.0 mi NNW 11.5 mph 18.4 mph N/A   Clear
8:35 AM 38.8 °F 32.1 °F 32.0 °F 76% 29.66 in 10.0 mi NNW 10.4 mph 16.1 mph N/A   Clear
8:55 AM 39.6 °F 32.1 °F 32.0 °F 74% 29.67 in 10.0 mi NNW 12.7 mph 19.6 mph N/A   Mostly Cloudy
9:15 AM 39.2 °F 30.5 °F 32.0 °F 75% 29.67 in 10.0 mi NNW 16.1 mph 21.9 mph N/A   Overcast
9:35 AM 38.5 °F 28.9 °F 31.8 °F 77% 29.68 in 10.0 mi NNW 18.4 mph 23.0 mph N/A   Overcast
9:55 AM 38.5 °F 29.9 °F 31.6 °F 76% 29.68 in 10.0 mi NNW 15.0 mph - N/A   Overcast
10:35 AM 38.8 °F 28.8 °F 30.2 °F 71% 29.71 in 10.0 mi NNW 20.7 mph 31.1 mph N/A   Overcast
10:55 AM 38.3 °F 27.8 °F 30.7 °F 74% 29.72 in 10.0 mi NNW 21.9 mph 32.2 mph N/A Rain Light Rain
11:15 AM 34.2 °F 21.8 °F 31.6 °F 90% 29.74 in 1.0 mi NNW 24.2 mph 33.4 mph N/A Snow Light Snow
11:35 AM 33.1 °F 21.2 °F 31.8 °F 95% 29.75 in 0.8 mi NW 20.7 mph 28.8 mph N/A Snow Light Snow
11:55 AM 32.5 °F 20.8 °F 31.5 °F 96% 29.76 in 1.0 mi NNW 19.6 mph 29.9 mph N/A Snow Light Snow
12:15 PM 32.9 °F 20.7 °F 31.1 °F 93% 29.77 in 4.0 mi NW 21.9 mph 26.5 mph N/A Snow Light Snow
12:35 PM 32.4 °F 19.4 °F 28.4 °F 85% 29.77 in 10.0 mi NW 24.2 mph 31.1 mph N/A   Overcast
12:55 PM 32.0 °F 17.6 °F 26.4 °F 80% 29.78 in 10.0 mi NW 29.9 mph 35.7 mph N/A   Overcast
1:15 PM 31.8 °F 18.4 °F 25.3 °F 77% 29.79 in 10.0 mi NW 25.3 mph 35.7 mph N/A   Overcast
1:35 PM 31.5 °F 17.1 °F 25.5 °F 79% 29.79 in 10.0 mi NW 28.8 mph 34.5 mph N/A   Overcast
1:55 PM 31.1 °F 15.9 °F 23.7 °F 74% 29.80 in 10.0 mi NW 32.2 mph 42.6 mph N/A   Mostly Cloudy
2:15 PM 31.1 °F 16.6 °F 24.8 °F 77% 29.81 in 10.0 mi NW 28.8 mph 39.1 mph N/A   Mostly Cloudy
2:35 PM 30.9 °F 15.7 °F 23.0 °F 72% 29.81 in 10.0 mi NW 32.2 mph 39.1 mph N/A   Mostly Cloudy
2:55 PM 31.1 °F 17.2 °F 22.5 °F 70% 29.82 in 10.0 mi NW 26.5 mph 41.4 mph N/A   Mostly Cloudy
3:15 PM 30.7 °F 16.2 °F 21.7 °F 69% 29.84 in 10.0 mi NW 28.8 mph 35.7 mph N/A   Overcast
3:35 PM 30.9 °F 16.4 °F 21.4 °F 68% 29.84 in 10.0 mi NW 28.8 mph 35.7 mph N/A   Overcast
3:55 PM 30.4 °F 16.7 °F 20.7 °F 67% 29.85 in 10.0 mi NW 24.2 mph 35.7 mph N/A   Overcast
4:15 PM 30.6 °F 15.7 °F 18.9 °F 62% 29.86 in 10.0 mi WNW 29.9 mph 39.1 mph N/A   Mostly Cloudy
4:35 PM 30.4 °F 15.4 °F 18.3 °F 61% 29.86 in 10.0 mi NW 29.9 mph 38.0 mph N/A   Scattered Clouds
4:55 PM 30.2 °F 16.5 °F 18.3 °F 61% 29.87 in 10.0 mi NW 24.2 mph 35.7 mph N/A   Scattered Clouds
5:15 PM 29.8 °F 15.5 °F 17.8 °F 61% 29.88 in 10.0 mi NW 26.5 mph 35.7 mph N/A   Clear
5:35 PM 29.7 °F 15.2 °F 17.4 °F 60% 29.89 in 10.0 mi NW 26.5 mph 40.3 mph N/A   Clear
5:55 PM 28.9 °F 14.0 °F 17.6 °F 63% 29.91 in 10.0 mi NW 27.6 mph 32.2 mph N/A   Clear
6:15 PM 28.6 °F 14.1 °F 17.2 °F 63% 29.91 in 10.0 mi NW 25.3 mph 34.5 mph N/A   Clear
6:35 PM 28.0 °F 14.3 °F 17.8 °F 65% 29.93 in 10.0 mi NW 21.9 mph 25.3 mph N/A   Clear
6:55 PM 27.5 °F 15.4 °F 17.6 °F 66% 29.94 in 10.0 mi NW 16.1 mph 28.8 mph N/A   Clear
7:15 PM 27.3 °F 13.3 °F 16.7 °F 64% 29.95 in 10.0 mi NW 21.9 mph 32.2 mph N/A   Clear
7:35 PM 26.6 °F 12.7 °F 16.9 °F 67% 29.96 in 10.0 mi NW 20.7 mph 27.6 mph N/A   Clear
7:55 PM 26.4 °F 13.2 °F 17.4 °F 69% 29.97 in 10.0 mi NW 18.4 mph 26.5 mph N/A   Clear
8:15 PM 25.7 °F 12.3 °F 16.9 °F 69% 29.97 in 10.0 mi NW 18.4 mph - N/A   Clear
8:35 PM 25.3 °F 11.0 °F 16.0 °F 68% 29.98 in 10.0 mi NNW 20.7 mph 27.6 mph N/A   Clear
8:55 PM 24.1 °F 10.6 °F 15.8 °F 71% 29.99 in 10.0 mi NW 17.3 mph 27.6 mph N/A   Clear
9:15 PM 23.5 °F 11.3 °F 15.6 °F 72% 30.00 in 10.0 mi NW 13.8 mph 21.9 mph N/A   Clear
9:35 PM 23.0 °F 9.2 °F 15.4 °F 73% 30.01 in 10.0 mi NW 17.3 mph 21.9 mph N/A   Clear
9:55 PM 22.8 °F 9.9 °F 15.4 °F 73% 30.02 in 10.0 mi NW 15.0 mph - N/A   Clear
10:15 PM 22.5 °F 11.7 °F 15.4 °F 74% 30.03 in 10.0 mi NW 10.4 mph - N/A   Scattered Clouds
10:35 PM 21.6 °F 11.3 °F 15.4 °F 77% 30.04 in 10.0 mi NW 9.2 mph - N/A   Scattered Clouds
10:55 PM 21.9 °F 11.0 °F 15.4 °F 76% 30.04 in 10.0 mi NW 10.4 mph 16.1 mph N/A   Clear
11:15 PM 21.6 °F 9.9 °F 15.4 °F 77% 30.04 in 10.0 mi NW 11.5 mph - N/A   Clear
11:35 PM 22.3 °F 8.7 °F 15.8 °F 76% 30.04 in 10.0 mi NW 16.1 mph 20.7 mph N/A   Scattered Clouds
11:55 PM 22.1 °F 10.0 °F 15.8 °F 77% 30.05 in 10.0 mi NW 12.7 mph 19.6 mph N/A   Scattered Clouds